This demonstration page uses our WeatherBlox Daily Observations layout. Learn more.

Left ArrowRight Arrow

Hourly Observations for February 2, 2022

Temp ( °F °C ) Dew Point ( °F °C ) Humidity (%) Winds ( mph kmh ) Pressure ( in mb ) Visibility ( mi km ) Precip ( " mm )
12:56 am 00:56 Cloudy 16 -8.9 -1 -18.3 47 47 NNE 22 35 30.34 1027 10 16 0.00 0.00
1:56 am 01:56 Cloudy 15 -9.4 -1 -18.3 49 49 NNE 21 33 30.35 1028 10 16 0.00 0.00
2:56 am 02:56 Cloudy 14 -10 -1 -18.3 51 51 NNE 16 26 30.36 1028 10 16 0.00 0.00
3:56 am 03:56 Cloudy 13 -10.6 -2 -18.9 51 51 NNE 16 26 30.37 1028 10 16 0.00 0.00
4:56 am 04:56 Cloudy 12 -11.1 -2 -18.9 53 53 NNE 21 33 30.39 1029 10 16 0.00 0.00
5:56 am 05:56 Cloudy 10 -12.2 -4 -20 53 53 NNE 21 33 30.42 1030 10 16 0.00 0.00
6:56 am 06:56 Mostly Cloudy 9 -12.8 -5 -20.6 52 52 N 18 30 30.45 1031 10 16 0.00 0.00
7:56 am 07:56 Cloudy 8 -13.3 -6 -21.1 52 52 N 18 30 30.47 1032 10 16 0.00 0.00
8:56 am 08:56 Sunny 7 -13.9 -7 -21.7 52 52 N 20 31 30.50 1033 10 16 0.00 0.00
9:56 am 09:56 Sunny 9 -12.8 -7 -21.7 48 48 NNE 21 33 30.52 1034 10 16 0.00 0.00
10:56 am 10:56 Sunny 11 -11.7 -8 -22.2 42 42 N 22 35 30.54 1034 10 16 0.00 0.00
11:56 am 11:56 Sunny 11 -11.7 -8 -22.2 42 42 NNE 21 33 30.56 1035 10 16 0.00 0.00
12:56 pm 12:56 Sunny 12 -11.1 -8 -22.2 40 40 NNE 22 35 30.54 1034 10 16 0.00 0.00
1:56 pm 13:56 Sunny 14 -10 -10 -23.3 33 33 NNE 20 31 30.52 1034 10 16 0.00 0.00
2:56 pm 14:56 Sunny 15 -9.4 -11 -23.9 30 30 NNE 24 39 30.50 1033 10 16 0.00 0.00
3:56 pm 15:56 Mostly Sunny 13 -10.6 -11 -23.9 33 33 NNE 20 31 30.53 1034 10 16 0.00 0.00
4:56 pm 16:56 Mostly Cloudy 12 -11.1 -11 -23.9 34 34 NNE 21 33 30.54 1034 10 16 0.00 0.00
5:56 pm 17:56 Cloudy 12 -11.1 -10 -23.3 36 36 NNE 20 31 30.55 1035 10 16 0.00 0.00
6:56 pm 18:56 Cloudy 11 -11.7 -10 -23.3 38 38 NE 18 30 30.58 1035 10 16 0.00 0.00
7:56 pm 19:56 Cloudy 11 -11.7 -8 -22.2 42 42 NNE 18 30 30.58 1036 10 16 0.00 0.00
8:56 pm 20:56 Cloudy 9 -12.8 -9 -22.8 43 43 NNE 17 28 30.61 1037 10 16 0.00 0.00
9:56 pm 21:56 Cloudy 8 -13.3 -9 -22.8 45 45 NNE 17 28 30.61 1037 10 16 0.00 0.00
10:56 pm 22:56 Cloudy 7 -13.9 -9 -22.8 47 47 NNE 13 20 30.62 1037 10 16 0.00 0.00
11:56 pm 23:56 Mostly Cloudy 6 -14.4 -9 -22.8 49 49 NNE 13 20 30.63 1037 10 16 0.00 0.00

Powered by AerisWeather